Regional Weather Roundup
Issued by NWS Goodland, KS

Home | Current Version | Previous Version | Text Only | Print | Product List | Glossary Off
Versions: 1 2 3 4 5 6 7 8 9 10 11 12 13 14 15 16 17 18 19 20 21 22 23 24 25 26 27 28 29 30 31 32 33 34 35 36 37 38 39 40 41 42 43 44 45 46 47 48 49 50

000
ASUS43 KGLD 252359
RWRGLD

GOODLAND FORECAST AREA HOURLY WEATHER ROUNDUP
NATIONAL WEATHER SERVICE GOODLAND KS
600 PM MDT SAT APR 25 2015

...OFFICIAL OBSERVATIONS...

CITY           SKY/WX    TMP DP  RH WIND       PRES   REMARKS
GOODLAND KS    MOSUNNY   69  43  38 E10       29.69F
HILL CITY KS   PTSUNNY   63  52  67 E15       29.72S
IMPERIAL NEB   MOSUNNY   68  44  42 E12       29.69R
MCCOOK NEB     MOSUNNY   64  51  62 E14       29.72R
AKRON CO       PTSUNNY   67  37  33 SE22G30   29.69S
BURLINGTON CO  MOSUNNY   69  37  30 E15       29.70F
LIMON CO       NOT AVBL
$$

...UNOFFICIAL OBSERVATIONS...

CITY           SKY/WX    TMP DP  RH WIND       PRES   REMARKS
COLBY KS       SUNNY     70  52  52 E16G22    29.71S
GOVE KS          N/A     71  32  23 MISG        N/A
LENORA KS        N/A     60  32  34 MISG        N/A
NORTON KS      PTSUNNY   57  46  67 NE14G22   29.72S
SHARON SPRINGS   N/A     71  47  41 N9G17       N/A
KIT CARSON CO    N/A     70  40  33 MISG        N/A
YUMA CO          N/A     69  38  31 N13         N/A
$$


USA.gov is the U.S. government's official web portal to all federal, state and local government web resources and services.